Trail Valley, Northwest Territories

4:27 PM MDT on April 25, 2018 (GMT -0600)
Trail Valley

Weather History for CXTV - November, 2012

Change the Weather History Date:

Friday, November 16, 2012

  Actual Average (CYEV) Record (CYEV)
Temperature  
Mean Temperature 2 °F -  
Max Temperature 9 °F 4 °F 17 °F (2014)
Min Temperature -6 °F -3 °F -29 °F (2011)
Degree Days  
Heating Degree Days 64    
Moisture  
Dew Point -6 °F    
Average Humidity 83    
Maximum Humidity 88    
Minimum Humidity 75    
Precipitation  
Precipitation 0.00 in - - ()
Sea Level Pressure  
Sea Level Pressure 30.28 in    
Wind  
Wind Speed 12 mph ()    
Max Wind Speed 22 mph    
Max Gust Speed -    
Averages and records for this station are not official NWS values.
T = Trace of Precipitation, MM = Missing Value Source: Averaged Metar Reports

Daily Weather History Graph

Daily Weather History Graph

Search for Another Location

Airport or City:

Astronomy

Nov. 16, 2012 Rise Set
Actual Time 11:28 AM MST 3:48 PM MST
Civil Twilight 10:00 AM MST 5:16 PM MST
Nautical Twilight 8:42 AM MST 6:33 PM MST
Astronomical Twilight 7:34 AM MST 7:42 PM MST
Moon 3:16 PM MST (11/16) 6:14 PM MST (11/16)
Length of Visible Light 7h 16m
Length of Day
4h 20m
Waxing Crescent, 12% of the Moon is Illuminated
Nov 16
Waxing Crescent
Nov 20
First Quarter
Nov 28
Full
Dec 6
Last Quarter
Dec 13
New

Hourly Weather History & Observations

Time (MST) Temp. Windchill Dew Point Humidity Pressure Visibility Wind Dir Wind Speed Gust Speed Precip Events Conditions
12:00 AM 9.0 °F -11.0 °F 6.1 °F 88% 30.01 in - NW 21.9 mph - N/A   Unknown
1:00 AM 6.6 °F -10.2 °F 3.4 °F 87% 30.05 in - NNW 13.8 mph - N/A   Unknown
2:00 AM 3.7 °F -13.9 °F 0.3 °F 86% 30.07 in - North 13.8 mph - N/A   Unknown
3:00 AM 0.5 °F -16.5 °F -2.7 °F 86% 30.11 in - NNW 11.5 mph - N/A   Unknown
4:00 AM -3.6 °F -19.7 °F -7.2 °F 85% 30.14 in - NNW 9.2 mph - N/A   Unknown
5:00 AM -5 °F - -8 °F 78% 30.16 in - NW 11.5 mph - -  
5:00 AM -4.9 °F -23.2 °F -8.3 °F 85% 30.16 in - NW 11.5 mph - N/A   Unknown
6:00 AM -5.6 °F -25.0 °F -9.0 °F 85% 30.17 in - NW 12.7 mph - N/A   Unknown
7:00 AM -5.3 °F -17.8 °F -9.0 °F 84% 30.20 in - WNW 5.8 mph - N/A   Unknown
8:00 AM 0.3 °F -17.5 °F -3.6 °F 83% 30.22 in - NNW 12.7 mph - N/A   Unknown
9:00 AM 0.5 °F -18.7 °F -3.5 °F 83% 30.25 in - North 15.0 mph - N/A   Unknown
10:00 AM -0.0 °F -19.4 °F -3.8 °F 84% 30.26 in - NNW 15.0 mph - N/A   Unknown
11:00 AM -1 °F - -5 °F 76% 30.27 in - North 15.0 mph - -  
11:00 AM -0.8 °F -20.3 °F -4.7 °F 83% 30.27 in - North 15.0 mph - N/A   Unknown
12:00 PM -2.7 °F -24.2 °F -6.3 °F 85% 30.30 in - North 17.3 mph - N/A   Unknown
1:00 PM -3.8 °F -24.3 °F -7.6 °F 84% 30.33 in - North 15.0 mph - N/A   Unknown
2:00 PM -3.8 °F -23.5 °F -7.6 °F 84% 30.35 in - North 13.8 mph - N/A   Unknown
3:00 PM -3.1 °F -21.8 °F -7.1 °F 83% 30.37 in - NNW 12.7 mph - N/A   Unknown
4:00 PM -3.1 °F -21.0 °F -7.1 °F 83% 30.38 in - North 11.5 mph - N/A   Unknown
5:00 PM -3 °F - -7 °F 75% 30.38 in - NNW 15.0 mph - -  
5:00 PM -2.9 °F -23.1 °F -6.9 °F 83% 30.38 in - NNW 15.0 mph - N/A   Unknown
6:00 PM -3.5 °F -23.1 °F -7.4 °F 83% 30.39 in - NNW 13.8 mph - N/A   Unknown
7:00 PM -3.6 °F -20.7 °F -7.4 °F 84% 30.41 in - North 10.4 mph - N/A   Unknown
8:00 PM -3.6 °F -20.7 °F -7.4 °F 84% 30.42 in - North 10.4 mph - N/A   Unknown
9:00 PM -3.6 °F -20.7 °F -7.2 °F 85% 30.42 in - North 10.4 mph - N/A   Unknown
10:00 PM -3.5 °F -19.5 °F -6.9 °F 85% 30.42 in - NNW 9.2 mph - N/A   Unknown
11:00 PM -4 °F - -7 °F 77% 30.41 in - North 9.2 mph - -  
11:00 PM -4.0 °F -20.2 °F -7.4 °F 85% 30.41 in - North 9.2 mph - N/A   Unknown